Temp_Advection
nan nan nan nan nan nan nan nan nan nan nan nan nan nan nan nan nan nan nan nan nan nan nan nan nan nan nan nan nan nan nan nan nan nan nan nan nan nan nan nan nan nan nan nan nan nan nan nan nan
nan -0 -0 -0 -0 -0 -1 -1 0 -0 -0 -0 -0 -0 -1 -1 -0 0 0 0 0 0 0 0 0 -0 -0 -0 -0 -0 -0 -0 -0 -0 -0 -0 -0 -0 -0 -0 -0 -0 -0 -0 -0 -0 -0 -0 nan
nan -0 -0 -0 -0 -1 -1 -0 -0 -0 0 -0 -0 -0 -1 -1 -0 0 0 -0 -0 0 0 0 0 -0 -0 -0 -0 -0 -0 -0 -0 -0 -0 -0 -0 -0 -0 -0 -0 -0 -0 -0 -0 -0 -0 -0 nan
nan -0 -0 -0 -1 -1 -1 0 -2 0 0 -0 -1 -1 -0 -0 -0 0 0 0 -0 -0 0 0 -0 -0 -0 -0 -0 -0 -0 -0 -0 -0 -0 -0 -0 -0 -0 -0 -0 -0 -0 -0 -0 -0 -0 -0 nan
nan -0 -0 -0 -1 -1 0 -0 -2 -0 0 0 -1 -1 -0 0 0 -0 -0 -0 -0 0 0 0 0 -0 -0 -0 -0 -0 -0 -0 -0 -0 -0 -0 -0 -0 -0 -0 -0 -0 -0 0 0 -0 -0 0 nan
nan -0 -0 -1 -1 -1 0 0 -0 -1 -0 0 -1 -1 -0 0 0 0 0 0 -0 0 0 0 0 0 -0 -0 -0 -0 -0 -0 -0 -0 -0 -0 -0 0 -0 -0 0 0 0 0 -0 -0 -0 -0 nan
nan -0 -1 -1 -0 -0 0 0 0 -0 -0 -0 -1 -1 -0 0 0 0 0 0 0 -0 0 0 0 0 0 0 0 -0 -0 -0 -0 -0 -0 -0 0 0 0 -0 -0 -0 -0 -0 -0 -0 -0 -0 nan
nan 0 -1 -0 -0 -0 0 0 0 0 -0 0 -0 -0 -1 -0 0 0 0 0 0 -0 -0 0 0 0 0 0 0 0 -0 -0 -0 -0 -0 -0 -0 -0 -0 -0 -0 -0 -0 -0 -0 -0 -0 -0 nan
nan 0 -1 -0 -0 -0 -1 -0 -0 -0 0 -0 -0 -0 -1 -0 0 0 0 0 0 0 -0 -0 -0 0 0 0 0 -0 -0 -0 -0 -0 -0 -0 0 -0 -0 -0 -0 -0 -0 -0 -0 -0 -0 -0 nan
nan -0 -0 -1 -1 -1 -1 -0 0 0 0 -0 -0 0 1 0 -0 0 0 0 0 0 0 -0 -0 -0 0 0 0 -0 -0 -0 -0 -0 0 0 -0 -0 -0 -0 -0 -0 -0 -0 -0 -0 -0 -0 nan
nan -0 -0 -1 -1 -1 -1 -1 -0 0 0 -0 -1 -0 1 0 0 -0 -0 -0 0 0 0 0 -0 -0 -0 -0 0 0 -0 -0 -0 0 -0 -0 -0 -0 -0 -0 -0 -0 -0 -0 -0 -0 -0 -0 nan
nan -0 -0 0 0 -1 -1 -1 -1 0 -0 0 -1 -0 0 0 0 0 -0 0 0 0 0 0 -0 -0 -0 -0 -0 -0 -0 -0 -0 -0 -0 -0 -0 -0 -0 -0 0 -0 -0 -0 -0 -0 -0 -0 nan
nan 0 1 1 1 -1 -3 -1 -0 -0 0 0 0 0 -0 -0 0 0 0 0 0 0 0 0 0 0 0 -0 -0 0 -0 0 0 -0 -0 -0 0 -0 -0 0 0 0 -0 -0 -0 -0 -0 -0 nan
nan 1 0 1 1 1 -1 -2 -0 -0 0 0 1 0 -0 -0 0 0 0 0 0 0 0 0 0 0 0 0 0 0 0 0 0 0 -0 -0 -0 -0 0 0 0 -0 -0 -0 0 0 0 0 nan
nan -0 -0 -0 0 0 -1 -1 -0 -0 0 -0 -0 -0 -0 -0 0 0 0 0 0 0 0 0 0 0 0 0 0 0 0 0 0 0 0 -0 -0 -0 -0 -0 -0 -0 -0 -0 0 -0 0 0 nan
nan -0 -0 -0 -0 -0 0 -2 -1 -0 0 -0 -0 -0 -0 -0 0 0 0 0 0 0 0 0 0 0 0 0 0 0 0 0 0 0 0 -0 -0 -0 -0 -0 -0 -0 -0 -0 -0 -0 -0 -0 nan
nan 0 -0 -0 -0 -0 -0 -1 -1 0 -0 -0 -0 -0 0 0 -0 -0 0 0 0 0 0 -0 0 0 0 0 0 0 0 0 0 0 0 -0 -0 -0 -0 -0 -0 -0 -0 -0 -0 -0 -0 -1 nan
nan -0 -0 -0 -1 -0 -1 -1 0 0 0 0 -0 -0 0 0 -0 -0 0 0 0 0 0 0 0 0 0 0 -0 -0 -0 0 0 0 0 -0 -0 -0 -0 -0 -0 -0 -0 -0 -0 -0 -0 -0 nan
nan -0 -0 -0 -0 -0 -1 -1 -0 0 0 0 -0 -0 0 0 0 0 0 0 0 0 0 0 0 0 0 -0 0 0 -0 -0 0 0 0 -0 -0 -0 -0 -0 -0 -0 -0 -0 -0 -0 -0 -0 nan
nan -0 0 0 0 -0 -0 -0 -0 -0 -1 -0 -0 -0 -0 -0 0 0 0 0 0 0 0 0 0 0 0 0 0 0 0 0 0 0 0 -0 -0 -0 -0 -0 -0 -0 -0 -0 -0 -1 -1 -1 nan
nan -0 -0 -0 0 -0 -0 -0 -0 -0 -0 0 0 -0 0 -0 0 0 0 0 0 0 0 0 0 0 0 0 0 -0 -0 0 0 0 0 -0 -0 -0 -0 -0 -0 -0 -0 -0 -0 -0 -1 -1 nan
nan -1 -0 -0 -0 -0 0 -0 -0 -1 1 0 0 0 -0 -0 0 0 0 0 0 0 0 0 0 0 -0 -0 -0 -0 0 0 0 0 0 -0 -0 -0 -0 -0 -0 -0 -0 -0 -0 -0 0 -0 nan
nan -0 0 -0 -0 0 0 0 -0 0 0 -0 -0 0 -0 -0 0 0 0 0 0 0 0 0 0 0 -0 0 0 0 0 0 0 0 0 -0 -0 -0 -0 -0 -0 -0 -0 -0 -0 -0 -0 0 nan
nan 0 -0 0 0 -0 -0 -0 -0 -0 -0 -0 -0 0 -0 -0 0 0 0 0 0 0 0 0 0 0 0 1 0 0 -0 -0 0 0 0 0 -0 -0 -0 -0 -0 -0 -0 -0 -0 -0 -0 -0 nan
nan 0 -0 0 0 -0 -0 0 -1 -0 0 1 -0 -0 1 1 0 0 0 0 0 0 0 0 0 0 0 0 -0 -0 0 0 0 0 0 0 0 -0 -0 -0 -0 -0 -0 -0 -0 -1 -0 -0 nan
nan 0 -0 -0 -0 -0 0 -0 -0 0 0 1 0 1 2 1 1 0 0 0 0 0 0 0 0 0 0 0 0 0 0 0 0 0 0 0 0 0 -0 -0 -0 -0 -0 -0 -0 -1 -0 -0 nan
nan -1 -1 0 -0 -0 -0 -0 -0 -0 0 0 1 2 1 1 1 1 1 1 1 1 1 1 0 0 0 0 0 0 0 0 0 0 0 0 0 -0 0 -0 -0 -0 -0 -0 -0 -0 -0 -0 nan
nan 0 0 0 -0 -0 -0 0 0 -0 -0 0 1 1 1 1 1 1 1 1 1 1 1 1 1 0 0 0 0 0 0 0 0 0 0 -0 -0 -0 -0 -0 -0 -0 -0 -0 -0 -0 0 -0 nan
nan -0 -0 0 0 0 0 -0 -0 -0 -0 -0 0 0 0 0 0 1 1 1 1 1 1 1 1 1 1 0 0 0 0 0 0 0 -0 -0 -0 -0 -0 -0 -0 -0 -0 -0 -0 -0 -0 -0 nan
nan nan nan nan nan nan nan nan nan nan nan nan nan nan nan nan nan nan nan nan nan nan nan nan nan nan nan nan nan nan nan nan nan nan nan nan nan nan nan nan nan nan nan nan nan nan nan nan nan
Wind_Speed
13 12 13 4 1 3 6 10 8 7 4 4 15 9 14 18 5 9 18 18 12 8 8 10 7 5 6 5 4 4 4 3 4 5 6 7 8 9 9 9 9 9 9 8 8 7 7 7 7
11 11 7 5 3 5 7 15 6 7 11 12 16 9 7 5 10 19 22 14 11 11 7 8 6 5 6 5 4 4 4 4 5 6 7 8 8 9 10 11 11 12 13 13 13 12 11 10 10
13 7 5 4 4 6 7 1 9 15 19 12 5 8 8 7 17 21 23 17 16 15 8 6 5 5 5 4 4 4 4 5 6 7 8 9 10 12 12 13 13 13 13 14 15 15 15 15 15
13 3 8 3 10 10 13 2 22 13 12 13 15 9 10 11 11 19 21 17 15 10 8 5 5 4 4 5 5 5 6 7 8 9 10 11 12 13 13 13 14 14 14 15 15 15 15 15 16
9 8 4 6 10 15 4 4 18 9 7 10 15 8 9 15 14 23 21 19 13 9 8 6 4 4 5 5 6 7 8 9 9 10 10 11 12 13 13 13 13 14 14 15 15 15 15 16 16
4 7 5 10 11 15 4 5 17 15 16 11 8 12 7 16 18 20 19 19 15 8 7 5 5 5 5 6 7 8 9 9 9 9 10 10 11 12 13 14 13 13 14 15 15 16 16 16 16
8 4 7 10 9 13 5 8 9 13 13 9 18 6 13 20 22 21 19 18 15 11 3 3 7 7 7 8 9 9 10 9 9 9 10 10 11 12 13 14 14 14 14 15 15 16 16 15 15
14 2 6 7 8 7 7 9 3 16 6 15 14 7 9 23 25 21 19 18 16 14 10 4 4 9 9 11 11 10 9 9 10 11 11 11 12 13 13 13 13 13 14 14 15 15 15 14 14
9 5 7 5 4 4 14 4 6 8 17 9 4 10 14 29 27 23 20 17 15 15 15 8 10 5 10 13 12 10 10 10 13 14 13 12 11 11 11 12 12 12 12 12 13 13 13 13 13
5 6 4 10 12 9 16 7 5 3 13 6 10 16 26 25 26 24 20 16 12 13 18 14 14 11 9 14 11 11 12 11 11 11 9 11 12 13 12 12 12 12 13 13 14 14 13 13 14
5 13 10 13 13 18 11 12 0 4 6 11 18 26 24 28 24 20 16 14 13 13 18 16 16 14 10 10 10 10 9 8 9 10 7 7 9 10 12 13 13 13 13 13 15 17 18 18 18
6 15 29 23 19 16 14 19 11 8 2 8 22 24 25 28 24 21 19 17 18 16 20 18 17 14 13 10 9 9 9 7 5 9 8 4 4 6 8 10 12 14 14 15 15 16 18 19 19
6 6 18 29 30 21 27 14 12 10 8 7 21 23 25 25 23 21 20 20 16 16 23 21 21 17 14 14 12 10 8 7 6 6 8 6 6 8 8 9 11 14 15 17 17 17 18 18 19
15 18 11 20 29 24 14 22 4 7 11 16 20 22 25 25 24 22 20 18 18 16 22 22 22 21 18 16 13 12 12 9 6 7 9 9 10 10 9 9 12 13 14 13 14 15 14 15 19
26 6 8 8 19 7 10 16 11 12 15 20 21 23 24 23 22 22 20 19 19 17 18 19 18 18 17 17 15 13 10 9 7 8 9 10 10 10 10 11 12 13 13 13 13 14 15 16 19
2 4 4 9 18 7 10 15 11 17 19 21 22 24 25 24 23 21 19 19 19 19 21 20 20 20 17 16 14 14 12 11 9 8 8 9 10 9 9 11 12 11 12 13 14 16 17 18 20
5 4 7 8 21 7 14 9 11 18 21 20 22 25 26 25 22 21 21 21 21 20 21 22 22 21 18 16 14 15 13 11 10 8 7 8 9 9 9 10 10 10 12 14 15 17 18 20 23
9 10 11 8 15 12 19 11 4 8 13 17 22 25 26 27 26 25 24 22 22 21 21 21 22 22 20 20 19 17 15 13 11 8 6 6 7 8 8 9 9 10 12 14 16 18 19 20 25
9 14 10 12 12 21 18 14 14 14 15 16 25 27 28 28 26 26 25 24 23 23 21 23 23 22 22 21 18 17 16 14 10 6 4 4 6 6 7 8 9 11 14 16 18 19 22 24 26
17 9 13 1 13 16 14 16 15 13 19 26 24 30 33 29 29 29 28 27 26 24 23 23 22 22 19 17 13 13 14 14 9 6 3 3 4 6 7 9 11 12 14 16 19 23 25 27 27
18 15 9 6 7 8 4 9 13 10 17 26 31 32 36 37 34 33 32 30 27 25 24 22 22 21 19 20 19 20 16 13 10 6 2 1 4 6 8 9 11 13 15 18 20 23 25 28 28
15 13 12 11 12 6 10 4 8 16 18 20 29 28 38 39 36 35 34 31 29 25 23 23 22 22 23 23 22 18 15 14 10 5 2 1 4 6 7 10 12 14 17 20 23 24 26 26 27
14 10 6 5 7 2 5 2 5 8 17 17 21 30 38 42 40 38 35 32 29 27 25 24 23 23 22 19 17 16 13 13 9 6 2 1 3 6 8 10 14 17 20 22 24 25 26 25 25
8 4 7 3 2 3 8 6 5 6 15 19 21 31 35 41 41 38 34 31 30 29 28 25 23 21 19 20 19 21 19 13 9 6 3 1 3 7 11 14 17 20 23 25 26 27 27 26 25
12 5 3 1 1 6 10 7 9 2 9 14 21 32 37 41 41 40 37 36 34 33 28 26 23 22 22 22 21 19 16 12 8 7 4 3 5 9 13 17 20 23 26 27 28 27 27 25 24
14 17 5 7 6 5 3 8 10 3 10 9 18 35 37 40 41 42 39 38 36 32 30 26 24 23 22 21 19 17 14 12 9 6 4 6 8 12 16 20 23 26 27 27 27 27 27 27 26
7 10 18 4 2 3 5 5 1 5 6 4 12 32 36 41 40 41 39 37 35 32 29 27 25 23 22 20 18 16 13 11 7 6 6 9 12 16 19 22 25 26 27 27 27 27 27 27 28
4 3 6 0 3 4 6 4 6 8 10 8 8 24 32 37 39 39 37 35 32 29 28 25 23 24 22 19 17 15 12 9 7 7 9 12 16 18 22 24 26 26 27 27 27 28 28 29 30
4 4 6 6 5 5 2 5 3 9 14 14 9 23 32 36 38 38 35 32 29 29 29 26 24 24 22 20 17 13 11 8 7 8 12 15 18 20 22 24 26 27 27 28 29 30 31 33 33
10 8 11 4 6 4 4 5 5 5 14 17 17 25 30 33 35 36 34 32 32 31 30 27 25 23 20 18 15 13 9 7 8 11 14 17 19 21 23 25 26 27 28 29 30 32 33 33 34
Wind_Direction
301 308 326 303 251 209 246 249 272 102 79 46 102 66 98 44 20 121 144 146 166 157 170 132 111 87 66 57 72 89 90 72 39 19 9 5 5 8 12 14 15 15 9 357 347 342 338 331 325
301 317 322 257 228 220 237 237 179 131 105 92 84 88 74 98 82 131 136 160 158 149 164 129 110 73 56 67 87 90 76 54 36 28 28 28 29 33 37 38 38 38 35 32 30 26 25 19 10
300 322 266 205 211 235 250 232 121 99 126 126 99 58 88 96 121 140 145 140 132 159 170 140 99 67 65 81 89 85 70 61 56 54 52 50 49 50 51 50 50 49 49 47 44 40 36 36 35
298 293 259 247 250 235 253 337 111 119 135 147 132 84 93 105 139 146 147 145 159 181 192 142 104 76 80 90 93 93 88 79 69 65 60 57 54 53 51 50 51 51 50 47 43 42 41 37 33
260 270 253 223 243 264 52 74 121 129 150 170 148 142 98 113 137 142 143 136 163 185 193 150 123 97 100 102 104 100 90 80 74 66 63 61 58 55 52 50 52 52 48 44 40 35 32 31 30
202 242 237 229 242 243 133 146 145 162 162 168 117 97 113 146 142 147 146 152 154 147 175 156 138 122 114 113 112 103 93 83 74 70 68 63 58 57 56 55 56 53 48 43 40 36 32 28 26
147 273 236 257 236 248 152 150 183 169 156 137 138 95 141 147 154 153 151 154 156 146 175 128 150 137 130 124 117 107 95 79 71 73 72 64 55 54 53 53 50 45 41 37 34 30 26 24 22
151 28 253 243 261 277 108 152 248 144 108 145 147 157 161 167 162 153 159 154 148 149 140 153 114 138 139 129 119 108 91 78 80 77 72 67 56 58 52 48 44 40 35 29 26 26 26 25 29
141 125 261 249 253 348 9 77 29 72 120 99 87 101 165 174 157 156 151 158 162 152 149 157 132 125 133 132 123 107 81 75 74 64 57 56 51 49 52 42 38 35 32 30 27 24 22 26 27
224 180 222 338 23 355 336 322 141 136 136 102 111 125 159 166 160 162 162 161 160 159 151 163 151 161 137 129 122 104 84 69 65 62 52 33 38 37 34 31 34 35 30 31 27 27 28 28 28
248 198 155 269 7 344 332 313 358 256 169 180 161 155 161 160 162 164 155 158 162 164 153 161 157 162 142 128 124 109 101 102 107 94 74 55 27 35 19 22 27 30 32 35 30 36 39 37 35
188 235 170 222 265 347 332 329 304 233 297 210 180 179 164 162 164 160 164 166 170 175 154 158 157 158 152 146 126 131 132 121 111 122 109 107 85 70 32 29 23 31 36 42 37 37 38 35 32
217 187 195 195 234 281 312 294 275 288 193 124 165 172 164 164 164 165 170 178 177 173 159 162 163 157 165 132 155 161 137 161 149 114 114 103 86 74 64 40 38 37 42 43 36 36 33 26 27
210 202 189 193 187 223 292 288 266 256 170 146 161 165 165 167 170 170 180 180 172 174 164 170 169 169 158 168 163 154 166 167 130 108 99 90 80 73 68 54 51 48 45 45 37 34 34 16 21
235 147 153 179 160 174 257 279 230 231 159 156 162 164 170 172 176 179 181 178 173 173 166 164 168 163 161 161 160 163 147 140 138 112 99 84 76 70 60 58 54 47 42 36 33 28 22 14 19
176 146 170 166 168 168 138 264 288 223 169 169 172 170 173 176 178 181 179 174 181 175 166 169 163 162 164 166 167 160 158 158 148 124 99 80 72 70 59 52 48 40 32 29 24 18 14 7 10
214 220 192 166 182 143 185 220 290 188 172 178 181 177 175 175 176 179 178 181 181 179 175 172 167 160 167 162 158 154 165 161 151 135 103 77 65 61 53 47 40 31 22 18 18 15 10 1 359
195 212 203 173 189 173 195 221 184 180 183 193 188 181 179 179 178 178 177 181 185 173 184 179 171 172 172 169 173 170 167 166 162 139 107 69 57 51 41 36 33 22 14 10 7 5 6 2 353
224 196 216 187 187 198 209 216 213 190 196 219 196 186 184 184 180 179 179 180 175 184 183 176 176 178 178 181 178 174 177 172 163 149 110 66 46 44 36 27 25 15 5 4 359 357 356 354 351
241 266 248 300 167 188 203 228 220 211 200 199 217 187 185 182 182 177 178 178 182 183 183 180 182 181 181 177 174 181 182 180 171 161 128 59 51 31 30 19 10 4 358 355 354 349 348 345 348
231 232 249 188 161 238 225 225 204 225 206 193 213 198 187 185 183 179 179 182 182 183 182 184 184 181 176 170 180 192 194 184 183 178 153 49 41 28 14 6 358 354 350 347 345 342 340 337 337
236 230 225 156 154 204 196 222 200 212 209 190 198 200 183 184 185 182 182 183 181 183 184 186 188 184 186 192 196 204 197 187 191 192 183 66 20 8 358 351 345 342 339 337 336 334 332 330 329
248 249 158 154 209 149 210 149 240 228 207 192 191 201 184 183 185 182 184 184 180 183 189 191 189 192 197 197 194 179 180 196 193 195 196 350 348 338 339 338 334 333 332 331 329 328 329 329 327
122 234 83 135 242 253 213 156 236 196 187 197 185 193 187 182 184 182 183 180 178 187 192 193 190 191 189 185 179 185 196 197 191 186 196 276 317 324 323 328 328 328 328 327 327 327 326 326 324
141 216 66 96 200 224 193 212 224 223 193 189 186 186 187 181 178 177 177 179 181 189 191 189 186 185 184 184 187 192 194 196 192 188 208 249 295 304 314 319 323 326 326 325 324 324 324 324 323
187 178 175 189 189 193 117 221 227 233 126 128 181 180 178 175 176 176 178 180 185 190 187 184 183 183 182 185 187 189 191 195 199 213 244 282 302 308 313 319 323 323 322 322 323 322 321 321 319
199 218 210 345 186 97 198 248 336 101 96 101 146 162 163 167 172 172 177 182 187 187 181 184 183 182 184 186 189 190 196 203 213 237 272 295 306 312 316 318 319 320 320 320 319 317 317 315 315
192 206 204 287 215 209 223 210 203 186 183 174 164 155 158 162 167 169 173 181 187 182 175 183 184 182 185 187 192 198 201 210 232 265 291 305 311 315 317 319 320 318 318 317 316 314 314 311 311
156 217 209 165 241 182 179 248 21 209 175 168 162 154 158 160 163 167 169 178 180 174 173 180 180 183 185 189 196 201 207 224 255 286 300 308 313 316 317 317 317 316 315 315 314 312 311 310 308
207 187 196 167 233 223 137 278 335 328 148 150 155 155 157 160 162 163 165 168 168 170 173 178 182 184 186 191 197 203 215 242 275 293 305 311 314 317 317 317 315 315 314 313 310 308 306 306 306
Height
1524 1524 1522 1522 1529 1521 1518 1506 1486 1490 1495 1498 1500 1507 1514 1519 1524 1538 1539 1539 1541 1543 1545 1546 1547 1548 1548 1548 1549 1550 1550 1551 1551 1551 1551 1551 1550 1550 1550 1550 1549 1548 1548 1548 1547 1546 1545 1545 1545
1522 1522 1522 1521 1526 1525 1512 1489 1489 1489 1497 1501 1504 1509 1512 1526 1526 1531 1537 1540 1541 1542 1545 1546 1547 1548 1548 1548 1549 1550 1550 1551 1551 1551 1551 1551 1551 1551 1551 1550 1550 1549 1548 1548 1547 1547 1546 1545 1545
1523 1522 1523 1517 1515 1518 1503 1479 1485 1493 1497 1502 1508 1511 1516 1527 1530 1533 1538 1540 1542 1542 1546 1546 1547 1547 1548 1548 1549 1550 1551 1551 1551 1552 1552 1552 1552 1552 1552 1551 1551 1551 1550 1549 1548 1548 1547 1546 1546
1525 1523 1520 1517 1512 1495 1490 1482 1487 1495 1502 1504 1508 1516 1522 1527 1529 1531 1537 1541 1541 1542 1546 1546 1546 1547 1548 1549 1550 1551 1551 1552 1552 1553 1553 1553 1553 1553 1553 1553 1552 1552 1551 1551 1550 1549 1548 1548 1547
1524 1523 1518 1513 1506 1492 1485 1484 1488 1497 1501 1504 1507 1517 1524 1527 1529 1533 1537 1541 1540 1542 1544 1545 1546 1547 1548 1550 1551 1552 1552 1553 1554 1554 1554 1555 1555 1555 1555 1554 1554 1553 1553 1552 1552 1551 1550 1549 1548
1520 1519 1514 1514 1501 1488 1485 1486 1489 1496 1501 1505 1508 1515 1526 1528 1531 1534 1538 1540 1541 1540 1543 1545 1546 1547 1548 1550 1551 1552 1554 1554 1555 1556 1556 1557 1557 1556 1556 1556 1555 1555 1554 1554 1554 1552 1551 1550 1549
1513 1514 1507 1501 1495 1490 1484 1486 1490 1494 1499 1505 1508 1515 1526 1528 1530 1533 1537 1539 1540 1543 1542 1544 1546 1547 1549 1550 1552 1553 1555 1556 1557 1557 1558 1558 1558 1558 1558 1557 1557 1557 1556 1555 1554 1553 1552 1551 1550
1506 1521 1506 1496 1496 1496 1483 1487 1492 1494 1499 1504 1508 1514 1523 1526 1528 1533 1536 1538 1540 1543 1545 1544 1546 1548 1549 1551 1553 1554 1556 1557 1558 1559 1559 1559 1559 1559 1559 1559 1559 1558 1557 1556 1555 1554 1553 1551 1550
1504 1515 1513 1502 1498 1498 1491 1491 1496 1498 1499 1504 1508 1510 1512 1520 1526 1531 1534 1537 1539 1542 1546 1547 1547 1548 1550 1552 1554 1556 1557 1558 1560 1560 1560 1560 1561 1561 1560 1560 1559 1558 1558 1557 1556 1554 1553 1551 1550
1506 1504 1513 1503 1502 1504 1500 1497 1499 1501 1502 1506 1510 1512 1514 1519 1525 1528 1532 1535 1538 1541 1544 1547 1549 1550 1551 1553 1555 1557 1558 1560 1561 1562 1563 1562 1562 1561 1561 1560 1560 1559 1558 1557 1556 1555 1554 1552 1551
1503 1495 1512 1508 1505 1507 1504 1500 1501 1502 1503 1503 1507 1510 1514 1518 1524 1528 1532 1535 1537 1540 1543 1547 1549 1551 1552 1554 1556 1558 1560 1562 1563 1564 1565 1565 1564 1563 1562 1561 1560 1559 1559 1557 1557 1556 1554 1553 1552
1505 1503 1499 1506 1507 1510 1509 1506 1501 1501 1502 1500 1502 1507 1512 1517 1522 1528 1531 1534 1536 1539 1543 1547 1549 1551 1553 1555 1557 1560 1561 1562 1563 1564 1564 1564 1564 1564 1563 1563 1561 1560 1559 1558 1558 1557 1555 1554 1553
1495 1493 1496 1497 1505 1510 1514 1509 1505 1500 1500 1500 1502 1506 1511 1516 1522 1527 1529 1532 1535 1538 1541 1545 1548 1551 1553 1555 1558 1559 1561 1561 1562 1563 1564 1564 1563 1563 1563 1562 1561 1560 1560 1559 1558 1558 1557 1556 1554
1488 1488 1494 1501 1499 1509 1518 1510 1504 1496 1498 1500 1503 1506 1511 1515 1519 1523 1526 1530 1533 1537 1540 1543 1546 1549 1553 1555 1557 1559 1560 1561 1562 1563 1563 1564 1563 1563 1563 1562 1561 1560 1560 1559 1559 1558 1557 1556 1555
1484 1493 1499 1500 1501 1502 1518 1505 1497 1496 1494 1499 1503 1506 1510 1514 1517 1520 1524 1528 1532 1536 1539 1541 1545 1548 1552 1554 1556 1557 1559 1561 1562 1563 1563 1563 1563 1563 1563 1563 1562 1561 1561 1560 1559 1559 1557 1556 1555
1488 1489 1493 1495 1502 1498 1514 1506 1491 1493 1493 1496 1501 1504 1508 1512 1515 1518 1523 1528 1530 1534 1537 1540 1544 1547 1550 1553 1555 1557 1558 1560 1561 1562 1563 1563 1563 1563 1563 1563 1562 1562 1561 1560 1558 1557 1556 1555 1554
1485 1486 1488 1490 1490 1496 1508 1498 1490 1480 1488 1495 1498 1502 1506 1510 1514 1517 1521 1525 1529 1532 1534 1538 1542 1545 1549 1552 1554 1556 1557 1558 1560 1561 1562 1563 1563 1563 1563 1563 1562 1562 1561 1560 1558 1557 1555 1553 1552
1481 1485 1476 1481 1485 1490 1498 1487 1483 1486 1487 1491 1496 1500 1504 1507 1510 1514 1518 1522 1526 1530 1532 1537 1540 1543 1546 1550 1552 1554 1556 1557 1559 1560 1561 1562 1562 1562 1562 1562 1562 1562 1561 1560 1558 1557 1555 1553 1551
1470 1472 1472 1474 1477 1484 1484 1484 1479 1479 1482 1487 1492 1495 1501 1504 1508 1511 1515 1520 1524 1527 1530 1534 1537 1541 1544 1547 1549 1551 1553 1556 1558 1559 1560 1561 1561 1562 1561 1561 1562 1561 1560 1559 1557 1556 1554 1552 1549
1474 1470 1471 1470 1468 1476 1478 1477 1474 1473 1474 1480 1486 1488 1494 1500 1504 1507 1511 1516 1520 1524 1528 1532 1535 1538 1542 1546 1549 1551 1553 1554 1557 1558 1559 1560 1560 1560 1561 1561 1561 1560 1559 1558 1556 1554 1552 1550 1549
1466 1472 1470 1469 1474 1475 1471 1475 1467 1461 1465 1472 1479 1481 1486 1491 1498 1502 1507 1512 1516 1521 1525 1529 1532 1537 1541 1545 1547 1548 1551 1553 1554 1556 1557 1558 1559 1559 1560 1560 1559 1559 1557 1556 1554 1552 1550 1547 1547
1465 1460 1461 1467 1472 1478 1466 1473 1457 1455 1457 1463 1468 1473 1477 1484 1492 1499 1503 1508 1513 1518 1523 1526 1530 1534 1538 1541 1544 1547 1550 1551 1552 1554 1556 1556 1557 1558 1558 1558 1558 1557 1555 1554 1552 1551 1548 1546 1543
1456 1456 1457 1461 1466 1462 1467 1473 1450 1442 1452 1455 1458 1465 1469 1476 1484 1491 1499 1503 1510 1514 1519 1523 1527 1531 1535 1539 1543 1546 1548 1550 1551 1553 1554 1555 1555 1556 1556 1556 1555 1555 1553 1551 1549 1547 1545 1543 1541
1451 1459 1455 1462 1469 1477 1455 1460 1448 1441 1435 1441 1450 1457 1463 1471 1479 1487 1497 1501 1506 1511 1515 1520 1523 1528 1533 1536 1540 1543 1546 1548 1549 1551 1552 1553 1553 1553 1553 1553 1552 1551 1550 1547 1545 1543 1541 1539 1537
1451 1461 1481 1487 1486 1477 1442 1455 1435 1427 1423 1427 1436 1445 1456 1465 1474 1482 1490 1497 1501 1506 1512 1516 1520 1525 1530 1534 1537 1541 1544 1546 1548 1549 1550 1551 1551 1551 1551 1550 1549 1548 1545 1543 1540 1538 1536 1534 1532
1448 1459 1471 1472 1470 1462 1447 1454 1429 1421 1422 1425 1431 1441 1451 1461 1469 1477 1486 1492 1497 1503 1508 1513 1517 1523 1528 1531 1535 1539 1542 1544 1546 1547 1548 1548 1548 1548 1547 1546 1545 1543 1541 1538 1536 1534 1532 1529 1527
1443 1446 1437 1443 1440 1448 1446 1432 1426 1425 1426 1426 1429 1438 1446 1454 1464 1474 1483 1490 1494 1500 1506 1510 1514 1520 1525 1529 1533 1537 1539 1542 1543 1545 1545 1545 1545 1545 1543 1542 1540 1539 1536 1534 1532 1529 1527 1525 1522
1431 1432 1447 1454 1459 1450 1436 1425 1426 1428 1427 1430 1431 1436 1444 1454 1462 1471 1480 1487 1494 1499 1504 1508 1513 1518 1522 1527 1530 1534 1537 1539 1541 1541 1542 1542 1542 1541 1539 1537 1535 1533 1531 1529 1526 1524 1521 1519 1517
1436 1436 1430 1434 1437 1449 1448 1432 1413 1413 1417 1426 1432 1438 1445 1453 1460 1469 1477 1486 1492 1498 1502 1506 1511 1515 1520 1524 1528 1532 1535 1536 1537 1538 1538 1538 1538 1537 1535 1533 1531 1528 1526 1524 1520 1518 1515 1513 1510
1415 1418 1422 1441 1433 1433 1445 1435 1412 1410 1415 1424 1432 1439 1446 1454 1461 1469 1476 1483 1489 1495 1500 1504 1509 1513 1517 1522 1526 1529 1531 1532 1533 1534 1535 1534 1533 1532 1530 1528 1526 1523 1520 1517 1514 1511 1509 1506 1503